Dewpoint
51 51 51 51 51 51 51 52 52 52 51 51 51 51 51 50 50 50 50 50 50 51 51 50 51 51 52 52 52 52 53 48 45 41 39 37 49 56 57 56 54 58 57 33 30 26 22 21 20 19 14 13 12 10 13 15 12 11 12 9 8 6 1 0 0 -1 0 2 5 9 9 8 6 13 23 28 22 20 22 31 38 42 42 51 55 60 64 66
51 50 51 52 51 51 52 52 53 53 52 52 52 52 52 51 50 50 50 50 51 51 51 51 51 52 52 52 52 53 51 48 44 38 32 49 61 59 59 60 56 56 54 30 24 21 19 17 16 15 10 10 9 6 15 13 11 9 8 8 3 2 3 1 2 2 3 1 6 10 10 8 6 17 21 25 19 12 14 25 46 43 50 54 60 63 62 66
50 51 52 52 52 52 52 53 53 53 53 53 53 53 52 52 51 51 51 50 51 51 51 51 51 51 52 52 52 53 50 45 43 38 35 60 57 57 60 59 55 57 36 30 24 20 17 15 12 11 9 8 8 4 13 8 10 6 8 4 3 3 3 7 7 5 3 3 7 8 8 8 10 19 31 28 20 16 10 19 40 46 51 52 59 63 65 65
51 51 52 52 52 52 52 52 53 53 53 53 53 53 53 53 53 52 51 52 52 50 51 51 51 51 52 52 54 51 48 45 39 33 35 60 54 58 58 60 55 55 35 31 24 21 16 11 9 9 7 6 8 4 9 6 11 5 2 0 2 0 0 1 1 1 0 4 7 8 8 6 19 23 25 24 22 19 13 14 35 42 55 55 59 62 65 64
51 51 51 51 51 52 53 53 52 53 53 53 53 53 53 53 53 52 52 52 51 51 51 51 51 51 52 52 54 50 48 40 26 40 47 59 59 58 62 62 59 37 33 29 23 16 12 9 7 5 5 4 5 5 4 5 8 3 3 1 1 -1 1 3 1 1 4 7 7 8 7 5 9 9 20 25 26 22 21 18 25 39 48 56 60 60 63 64
50 51 51 52 52 53 53 53 53 52 52 52 52 53 53 53 53 53 53 53 52 51 51 51 51 52 52 53 50 49 45 17 26 41 64 62 59 61 60 60 60 40 30 25 17 13 9 7 6 3 4 5 3 6 3 0 6 4 5 6 5 1 2 3 4 4 5 5 5 6 7 9 8 11 21 29 27 31 32 31 27 37 51 57 62 62 63 62
51 51 51 51 52 52 52 52 52 52 52 52 52 53 53 53 52 52 52 52 52 51 51 51 51 51 52 53 49 48 45 24 35 49 63 62 57 57 60 60 59 37 34 19 16 12 9 6 5 2 2 1 2 3 1 -1 6 4 -1 0 0 -1 2 2 1 2 4 4 6 8 8 7 10 11 20 28 28 34 37 43 47 49 51 54 58 62 62 62
50 51 51 51 51 51 51 51 52 52 52 52 52 53 53 53 53 52 52 51 51 51 50 51 51 52 52 49 45 45 43 25 40 45 61 58 53 51 55 35 33 33 25 19 15 11 7 5 0 4 2 -2 -2 1 4 6 6 3 -2 -2 3 3 1 2 3 2 4 6 8 8 7 7 11 12 31 28 32 37 38 43 47 47 52 53 59 59 61 61
50 51 51 51 51 51 52 52 52 52 52 51 52 52 53 53 52 52 52 52 51 51 51 51 51 51 52 49 40 36 26 32 34 44 46 41 33 37 33 29 29 25 20 18 13 9 6 5 2 4 -2 -1 5 1 4 3 2 0 -2 -3 -1 2 4 3 3 5 6 6 7 7 7 9 11 19 26 34 36 38 37 46 50 49 55 56 58 60 59 61
50 51 50 50 51 51 52 52 52 52 52 52 51 52 52 53 53 52 52 51 51 50 51 51 51 51 49 48 45 39 23 31 37 35 27 30 27 31 31 27 25 24 21 18 13 9 6 9 9 5 11 9 8 2 1 3 4 6 1 -2 -0 3 4 5 7 7 5 7 8 6 6 10 15 20 23 36 37 39 39 47 48 49 54 54 56 60 60 60
50 50 50 50 51 51 51 51 51 52 52 52 52 51 52 52 53 52 51 51 51 50 51 51 51 50 47 45 40 27 23 24 29 34 28 29 28 28 30 26 22 22 20 14 10 9 15 15 16 12 7 5 5 2 8 5 2 8 9 7 5 6 6 6 7 6 5 6 8 7 7 12 15 19 21 32 34 38 46 42 45 45 49 51 56 58 60 60
50 50 50 50 51 51 51 51 52 51 51 52 52 52 52 52 52 52 52 52 52 51 50 51 51 49 47 45 38 23 27 21 26 32 31 30 28 28 25 24 23 22 19 11 13 14 16 18 14 13 10 13 -2 6 7 5 8 5 5 4 4 3 2 5 2 1 5 5 7 8 7 10 15 14 25 32 33 37 38 42 37 45 45 51 54 59 59 58
50 50 50 50 51 51 51 51 51 51 51 51 51 51 51 51 51 52 52 52 51 50 51 50 51 49 49 45 22 24 26 27 24 26 28 26 26 26 25 24 26 26 22 15 14 15 16 17 17 16 16 10 9 4 11 9 4 4 5 3 3 2 2 4 2 3 4 5 7 7 8 9 9 14 20 29 31 34 34 33 43 46 50 50 51 55 56 57
50 50 50 50 50 51 51 51 51 51 51 51 51 52 51 51 51 52 52 52 52 52 51 52 51 48 47 29 22 27 30 33 25 26 21 20 18 18 21 21 22 24 21 16 15 18 17 15 16 16 16 12 11 12 11 9 6 4 4 3 3 2 1 4 3 4 4 6 7 7 11 8 10 13 17 25 28 28 32 33 36 44 47 51 53 53 55 56
50 50 50 50 50 51 51 51 51 51 51 51 51 51 51 51 51 51 53 53 51 51 51 51 49 49 48 26 27 35 52 38 26 22 21 17 13 12 14 16 17 16 15 17 17 18 19 18 18 14 11 12 12 5 6 7 5 2 4 2 -3 2 3 5 4 4 2 6 6 5 11 5 9 12 15 16 21 25 29 32 35 41 45 50 50 52 53 55
50 50 50 50 50 50 50 51 51 51 51 51 51 52 52 52 51 51 51 51 53 51 48 50 51 46 40 26 30 48 37 27 25 22 19 18 14 13 15 16 16 17 18 18 19 19 18 18 15 15 13 9 6 7 8 5 5 3 4 18 4 -3 7 6 8 5 4 6 6 4 3 2 6 11 14 14 15 18 28 30 33 36 46 48 49 50 51 54
50 50 50 50 50 50 50 50 51 51 50 50 51 51 52 52 52 52 52 52 50 48 48 47 41 44 41 33 32 28 20 29 26 25 19 18 16 16 15 17 16 17 17 18 18 19 18 16 18 16 9 11 13 11 8 9 8 6 1 9 11 -1 6 4 9 8 9 7 4 4 2 7 10 12 13 14 14 16 20 30 31 34 38 47 45 43 41 51
51 50 50 50 50 50 50 50 51 50 50 50 50 52 51 51 52 53 51 50 47 46 44 45 40 42 33 27 23 28 27 27 24 25 21 21 21 15 16 14 17 15 17 15 17 16 17 16 15 17 20 17 17 11 12 10 16 12 10 13 14 7 9 8 8 8 9 7 7 6 7 8 11 13 13 13 14 17 21 25 32 32 35 45 42 45 46 49
50 50 50 50 50 50 50 51 51 50 50 51 50 52 52 52 51 50 46 46 45 37 32 34 38 29 20 21 26 26 24 25 25 25 22 21 19 16 17 17 14 15 16 17 15 12 14 19 24 17 18 14 10 8 9 14 10 8 7 10 10 9 3 2 12 11 12 12 6 4 11 9 9 11 15 17 17 20 20 26 32 33 32 38 38 39 44 47
51 50 51 50 50 50 51 50 50 50 49 51 51 54 53 53 49 46 47 44 39 34 29 25 25 23 21 21 22 28 30 27 24 21 22 21 18 16 16 16 16 14 18 21 19 20 22 17 16 14 13 19 29 28 28 23 18 17 14 14 11 7 2 -2 16 16 16 14 11 11 13 10 9 13 16 17 22 23 22 25 31 32 32 32 32 38 46 49
51 51 51 51 50 50 50 50 50 50 50 50 53 51 39 33 31 33 31 34 38 33 27 24 19 19 25 23 25 23 23 23 23 19 22 22 19 16 16 15 16 21 16 18 27 29 25 17 19 20 28 29 30 30 28 25 25 17 13 10 5 6 8 3 10 19 17 22 10 12 10 16 17 19 18 20 22 21 23 24 28 30 28 31 33 36 41 50
51 51 51 51 51 50 51 50 50 50 51 52 51 47 34 33 33 37 34 28 25 23 23 24 27 24 27 26 25 27 25 19 20 19 20 19 17 15 15 10 12 14 18 19 22 24 18 14 19 25 28 27 28 29 25 25 25 21 13 9 8 6 3 16 20 22 16 22 14 10 12 16 18 17 19 22 23 22 23 24 26 28 26 28 29 36 42 44
51 51 52 51 51 50 50 50 51 51 52 52 49 46 33 33 36 38 40 36 29 25 23 22 19 19 22 25 25 25 24 21 16 17 20 18 18 15 13 8 13 12 20 24 18 21 18 11 23 23 26 25 25 24 26 27 27 20 15 10 9 8 7 11 25 22 22 21 16 14 10 19 21 20 22 25 23 23 25 25 28 29 28 29 31 35 41 45
51 51 51 51 51 51 50 50 51 51 51 50 42 35 31 34 35 35 40 38 32 25 20 19 15 16 22 21 25 23 22 17 17 15 20 18 17 15 15 11 11 12 11 13 17 13 9 22 23 26 23 24 27 27 27 21 16 21 21 14 8 10 13 11 17 25 30 28 27 17 21 18 18 15 17 23 23 23 23 23 28 34 31 32 34 35 39 42
51 51 51 51 51 51 51 51 50 49 48 46 38 34 34 39 41 39 42 39 29 22 26 27 25 24 25 30 26 23 21 22 18 16 19 17 17 14 10 13 12 10 8 6 11 11 6 26 25 19 17 19 24 25 25 25 15 17 24 23 20 19 22 22 23 25 24 21 26 16 10 12 15 13 12 19 22 23 24 27 28 31 35 33 36 38 39 44
51 51 51 51 51 51 51 47 47 41 38 35 35 34 36 36 40 44 43 38 31 24 18 20 21 22 28 23 24 23 25 18 21 22 20 17 22 17 17 13 12 13 10 11 8 14 18 25 21 20 22 22 20 20 24 25 16 15 18 23 22 17 22 22 22 22 16 11 20 28 19 13 11 12 16 20 23 23 22 21 19 19 21 21 25 29 34 40
51 51 51 52 51 51 47 43 39 33 31 32 36 41 37 37 50 51 42 34 25 18 14 21 17 27 25 23 21 23 18 21 21 23 22 23 19 19 16 11 12 12 14 21 18 9 14 22 18 22 25 24 21 18 23 24 19 11 27 20 19 18 18 21 22 18 16 20 26 23 16 16 11 11 19 22 23 21 22 21 22 16 21 20 21 21 29 32
50 51 51 51 51 51 51 52 43 33 29 37 36 35 35 45 51 50 40 27 20 18 20 20 18 23 23 24 21 20 18 19 17 19 19 21 20 18 15 14 7 8 12 18 12 22 24 24 22 22 22 19 15 17 21 24 19 15 26 22 19 17 25 22 19 21 19 19 15 18 20 17 13 13 14 20 21 20 19 25 23 21 20 21 24 23 23 32
50 50 51 51 52 51 52 50 47 35 34 36 35 35 39 53 49 44 34 21 28 15 21 20 20 19 18 19 19 21 20 18 16 18 19 21 19 18 14 14 12 11 10 17 19 23 20 19 17 19 17 15 15 14 18 25 21 24 23 21 20 22 23 24 20 18 22 21 18 19 18 15 15 18 12 19 18 19 20 23 25 24 23 22 24 29 34 32
50 50 50 51 52 51 50 52 48 36 32 36 38 43 50 50 46 36 27 19 24 19 15 17 16 16 17 15 15 17 17 16 14 16 17 18 19 18 16 16 13 15 14 11 11 10 20 23 22 13 13 11 12 18 19 16 19 23 24 18 16 18 23 23 22 20 21 16 16 20 21 15 13 16 16 20 26 24 19 23 26 25 25 24 33 31 27 24
49 49 50 51 49 45 45 43 39 33 37 42 47 46 46 45 38 28 21 25 20 15 14 15 13 14 14 13 15 14 13 15 14 14 14 16 18 16 14 13 14 17 17 20 17 12 10 12 11 10 11 8 10 14 17 15 15 19 20 17 18 20 22 23 22 23 16 12 16 12 15 23 15 13 11 20 25 23 25 27 26 26 25 27 32 26 26 28
49 49 50 51 48 49 44 42 44 41 43 51 51 47 42 27 30 23 19 21 16 14 13 14 11 10 10 10 13 12 12 13 12 12 14 12 19 15 14 15 20 13 14 15 16 15 17 11 9 11 16 9 9 5 8 12 16 16 18 18 20 16 18 17 18 16 13 16 19 14 17 19 15 17 13 18 19 20 22 17 24 27 26 32 27 29 28 28
48 49 51 50 51 50 45 46 47 50 55 55 49 38 34 25 21 21 19 16 19 15 13 11 10 9 10 11 10 11 12 14 11 11 11 11 13 15 13 12 14 20 15 21 16 16 15 12 11 10 10 12 8 7 5 14 14 14 16 22 17 12 13 14 12 14 15 18 18 19 21 16 12 11 18 22 24 22 22 25 26 28 33 33 27 28 27 33
48 49 52 51 49 47 47 51 49 54 54 51 44 34 28 22 21 23 21 16 13 14 13 11 9 9 9 11 11 10 10 10 10 11 10 12 9 18 15 12 12 17 21 20 13 12 9 5 7 9 14 12 9 7 9 15 12 11 13 12 19 17 17 13 9 8 8 7 19 18 18 16 14 14 18 26 25 23 23 21 30 31 31 33 28 28 30 35
47 50 56 61 55 49 50 46 51 58 54 41 33 28 23 20 15 11 14 13 14 13 11 12 11 10 11 11 7 9 9 13 10 9 10 9 13 14 17 15 16 9 14 13 20 19 5 7 13 10 12 12 7 8 10 9 9 12 14 13 15 15 18 11 14 13 16 14 14 18 19 15 17 27 25 22 20 20 21 24 28 28 28 31 32 34 34 38
49 54 56 53 48 52 47 40 52 57 48 38 31 21 19 21 13 2 7 11 14 12 10 11 11 9 11 12 11 9 10 13 11 11 9 6 7 10 10 16 17 14 16 12 17 12 6 6 12 11 9 8 5 9 10 8 13 17 7 16 16 15 12 14 18 22 24 15 11 13 19 17 17 18 22 20 18 20 19 21 23 27 29 34 33 34 36 39
36 51 49 45 42 38 41 41 44 48 45 33 26 20 23 16 4 11 21 14 12 12 11 10 12 8 13 10 13 10 9 11 10 8 13 10 16 10 12 16 15 14 9 16 18 13 16 10 6 9 9 9 9 9 8 10 9 7 12 11 10 10 18 20 14 14 13 11 13 14 17 10 9 13 17 19 18 18 18 18 21 31 30 30 33 37 38 40
44 39 41 40 36 37 39 43 48 44 36 29 23 29 18 15 14 11 12 12 8 9 10 12 14 10 11 10 11 8 11 7 12 9 6 8 15 13 14 15 15 15 16 17 14 21 19 14 6 6 8 10 14 12 8 6 8 7 6 9 12 13 13 16 14 12 13 12 9 11 11 11 10 16 18 20 20 21 19 19 24 25 27 30 32 36 39 41
45 37 29 32 33 35 41 52 48 36 33 25 24 20 15 8 11 16 12 10 11 11 8 6 12 12 11 14 11 7 8 10 5 6 9 13 9 21 12 13 16 15 15 14 15 17 23 17 12 6 6 9 13 11 8 6 5 8 8 6 9 14 16 11 15 14 17 14 15 16 10 12 15 16 22 21 24 24 20 21 23 24 28 32 33 34 37 41
45 31 23 42 37 40 50 48 40 32 28 22 23 21 12 12 12 17 13 10 8 8 12 9 5 12 14 13 9 8 9 8 5 9 8 16 9 17 14 14 13 16 15 16 11 19 20 26 15 15 10 13 12 13 14 7 12 10 12 12 10 19 18 13 21 12 13 13 11 12 12 15 25 22 21 24 31 25 23 23 25 28 30 32 34 37 38 39
36 26 22 44 37 42 45 41 31 28 26 25 22 16 17 19 17 18 15 13 10 13 12 16 16 15 14 14 8 7 8 10 10 8 5 8 8 15 16 14 15 13 14 12 12 22 17 16 15 16 11 11 13 10 13 15 15 18 19 19 19 16 14 15 16 16 13 11 12 10 12 17 30 27 24 20 25 26 24 22 27 26 29 35 37 38 38 38
31 23 26 39 41 42 36 29 30 27 23 21 19 18 20 31 17 15 16 15 13 11 12 13 16 16 17 15 14 10 10 8 8 9 6 6 4 5 19 19 13 14 13 14 15 30 27 24 19 14 13 9 4 12 17 15 15 14 14 13 13 21 18 17 15 17 19 14 10 13 14 14 31 27 22 25 27 23 24 23 26 28 33 34 36 37 39 39
32 18 32 32 38 34 29 27 27 23 25 22 16 20 22 20 17 13 15 14 13 12 15 15 15 17 16 15 15 11 10 16 10 8 6 5 5 19 17 18 13 10 8 10 4 24 24 23 13 6 1 -2 -1 -1 11 12 11 13 15 17 15 15 16 16 17 19 17 21 17 15 14 20 28 27 26 28 27 24 25 24 26 30 32 33 34 36 36 37
26 23 25 30 37 28 22 19 16 15 24 21 22 20 18 17 18 14 12 10 14 17 19 18 17 16 19 18 19 17 14 17 12 9 10 8 12 19 18 16 14 6 9 18 21 30 21 21 13 4 2 1 6 5 -1 4 11 13 11 14 12 11 14 18 20 23 18 19 15 14 12 14 35 30 25 23 23 22 22 23 27 30 33 34 34 35 36 37
29 30 23 24 30 30 17 17 15 11 18 22 26 25 21 18 13 17 21 14 18 17 22 21 19 18 17 16 17 14 13 12 21 12 11 13 14 19 18 17 14 9 17 28 34 24 20 21 16 11 12 11 7 2 5 12 12 17 18 14 9 11 24 21 16 17 14 18 15 11 8 16 28 25 24 23 22 23 24 24 26 29 32 31 32 35 36 37
29 21 31 24 24 25 23 28 28 25 22 27 29 27 19 20 19 17 16 13 16 18 18 15 17 19 15 13 19 16 12 14 13 17 10 13 11 17 18 15 15 12 31 33 32 22 21 24 20 17 11 9 9 6 14 12 12 10 14 13 14 16 17 22 19 15 12 16 14 16 17 17 20 22 23 25 26 25 26 27 26 25 30 31 34 34 34 35
29 28 28 25 29 22 23 22 21 21 16 28 24 25 26 21 18 20 17 19 18 17 17 18 15 19 22 17 22 20 17 12 9 13 12 11 9 16 17 16 16 29 37 26 24 22 23 20 20 23 21 13 11 11 11 10 12 10 8 16 14 15 19 21 17 17 20 15 9 15 18 18 17 16 18 24 25 25 25 24 25 25 29 30 32 33 36 32
26 30 31 37 34 23 25 25 21 24 24 25 25 31 27 25 23 25 20 16 19 22 21 20 17 13 13 20 24 23 21 20 19 20 15 12 10 16 17 17 14 29 27 18 26 25 23 18 21 23 19 15 15 13 11 11 9 10 9 14 18 15 18 21 23 21 24 19 15 20 22 22 20 21 20 17 19 23 24 25 27 27 26 30 32 30 29 30
31 32 29 35 32 30 28 29 27 22 24 24 25 29 28 26 25 21 24 25 18 21 16 21 25 15 12 13 19 22 25 21 21 23 23 23 21 23 21 18 16 18 19 21 21 26 26 20 22 17 17 15 13 12 13 12 12 9 14 14 15 20 22 22 23 22 21 23 22 23 24 24 22 20 20 22 26 26 23 25 27 24 26 29 30 31 28 28
31 32 31 35 35 28 31 29 29 24 25 28 21 28 24 28 26 21 18 20 27 27 21 22 16 15 17 16 18 20 33 36 35 29 28 31 29 27 25 24 19 19 17 21 21 28 26 19 27 24 19 18 16 13 12 11 15 16 14 12 15 17 17 19 21 22 23 23 23 24 25 26 25 28 25 24 24 20 23 22 24 24 26 29 29 29 29 29
36 38 38 37 31 24 28 29 25 25 22 26 22 28 26 24 27 22 22 18 26 29 28 28 23 24 20 17 25 28 27 31 32 32 32 31 27 27 24 26 18 24 18 22 24 26 28 23 24 20 16 18 16 14 12 13 16 15 17 19 19 19 22 22 20 22 23 22 24 24 23 23 24 23 21 21 21 19 21 25 24 25 24 26 27 28 28 29
36 37 38 36 29 28 25 27 27 20 15 28 27 28 25 21 20 19 27 20 18 20 25 25 30 28 24 25 28 28 26 26 27 25 23 22 21 19 19 19 18 22 26 23 24 22 26 23 20 17 16 18 15 14 14 19 19 16 19 21 19 21 19 18 19 22 24 24 21 21 21 22 23 22 20 22 24 20 20 19 22 22 24 23 27 28 28 30